Stündliche Wetter Otradnoe

Heute, 15 April, Donnerstag

Zeit Temperatur Niederschläge Wind Luftdruck Luftfeuchtigkeit
00:00 +12°C° 0 mm 2 m/S 751 mmHg 86%
01:00 +10°C° 0 mm 2 m/S 750 mmHg 86%
02:00 +11°C° 0 mm 1 m/S 750 mmHg 86%
03:00 +11°C° 0 mm 1 m/S 750 mmHg 87%
04:00 +10°C° 0 mm 1 m/S 750 mmHg 87%
05:00 +10°C° 0 mm 1 m/S 750 mmHg 87%
06:00 +10°C° 0 mm 1 m/S 750 mmHg 87%
07:00 +12°C° 0 mm 1 m/S 750 mmHg 78%
08:00 +14°C° 0 mm 2 m/S 750 mmHg 69%
09:00 +15°C° 0 mm 2 m/S 750 mmHg 61%
10:00 +16°C° 0 mm 2 m/S 749 mmHg 56%
11:00 +17°C° 0 mm 2 m/S 749 mmHg 50%
12:00 +19°C° 0 mm 1 m/S 749 mmHg 45%
13:00 +20°C° 0 mm 1 m/S 749 mmHg 43%
14:00 +20°C° 0 mm 1 m/S 749 mmHg 41%
15:00 +20°C° 0 mm 1 m/S 749 mmHg 38%
16:00 +19°C° 0 mm 1 m/S 749 mmHg 42%
17:00 +19°C° 0 mm 1 m/S 749 mmHg 46%
18:00 +18°C° 0 mm 1 m/S 748 mmHg 50%
19:00 +16°C° 0 mm 1 m/S 749 mmHg 53%
20:00 +14°C° 0 mm 1 m/S 749 mmHg 56%
21:00 +13°C° 0 mm 1 m/S 749 mmHg 59%
22:00 +13°C° 0 mm 1 m/S 749 mmHg 62%
23:00 +12°C° 0 mm 1 m/S 749 mmHg 66%

Morgen, 16 April, Freitag

Zeit Temperatur Niederschläge Wind Luftdruck Luftfeuchtigkeit
00:00 +11°C° 0 mm 1 m/S 749 mmHg 69%
01:00 +10°C° 0 mm 2 m/S 749 mmHg 74%
02:00 +9°C° 0 mm 2 m/S 749 mmHg 78%
03:00 +8°C° 0 mm 2 m/S 749 mmHg 82%
04:00 +8°C° 0 mm 2 m/S 749 mmHg 87%
05:00 +8°C° 0 mm 3 m/S 749 mmHg 91%
06:00 +7°C° 0 mm 3 m/S 750 mmHg 95%
07:00 +8°C° 0 mm 3 m/S 750 mmHg 91%
08:00 +8°C° 0 mm 4 m/S 750 mmHg 87%
09:00 +10°C° 0 mm 4 m/S 751 mmHg 82%
10:00 +12°C° 0 mm 4 m/S 751 mmHg 76%
11:00 +13°C° 0 mm 4 m/S 751 mmHg 70%
12:00 +14°C° 0 mm 4 m/S 751 mmHg 64%
13:00 +15°C° 0 mm 4 m/S 751 mmHg 61%
14:00 +17°C° 0 mm 4 m/S 751 mmHg 58%
15:00 +17°C° 0 mm 4 m/S 751 mmHg 56%
16:00 +15°C° 0 mm 4 m/S 751 mmHg 59%
17:00 +14°C° 0 mm 4 m/S 751 mmHg 63%
18:00 +14°C° 0 mm 4 m/S 751 mmHg 66%
19:00 +12°C° 0 mm 4 m/S 751 mmHg 70%
20:00 +11°C° 0 mm 4 m/S 751 mmHg 74%
21:00 +8°C° 0 mm 4 m/S 752 mmHg 78%
22:00 +7°C° 0 mm 4 m/S 752 mmHg 79%
23:00 +7°C° 0 mm 4 m/S 752 mmHg 79%

übermorgen, 17 April, Samstag

Zeit Temperatur Niederschläge Wind Luftdruck Luftfeuchtigkeit
00:00 +6°C° 0 mm 4 m/S 752 mmHg 80%
01:00 +6°C° 0 mm 4 m/S 752 mmHg 82%
02:00 +5°C° 0 mm 3 m/S 752 mmHg 83%
03:00 +5°C° 0 mm 3 m/S 752 mmHg 85%
04:00 +4°C° 0 mm 4 m/S 752 mmHg 85%
05:00 +4°C° 0 mm 4 m/S 752 mmHg 86%
06:00 +4°C° 0 mm 4 m/S 753 mmHg 86%
07:00 +5°C° 0 mm 4 m/S 753 mmHg 78%
08:00 +7°C° 0 mm 5 m/S 753 mmHg 71%
09:00 +8°C° 0 mm 5 m/S 753 mmHg 63%
10:00 +9°C° 0 mm 5 m/S 753 mmHg 58%
11:00 +10°C° 0 mm 5 m/S 753 mmHg 52%
12:00 +11°C° 0 mm 6 m/S 753 mmHg 47%
13:00 +13°C° 0 mm 6 m/S 753 mmHg 44%
14:00 +13°C° 0 mm 5 m/S 753 mmHg 41%
15:00 +13°C° 0 mm 5 m/S 753 mmHg 39%
16:00 +13°C° 0 mm 5 m/S 753 mmHg 40%
17:00 +12°C° 0 mm 5 m/S 753 mmHg 41%
18:00 +11°C° 0 mm 4 m/S 753 mmHg 42%
19:00 +10°C° 0 mm 4 m/S 753 mmHg 47%
20:00 +8°C° 0 mm 3 m/S 753 mmHg 52%
21:00 +7°C° 0 mm 3 m/S 753 mmHg 58%
22:00 +5°C° 0 mm 3 m/S 753 mmHg 60%
23:00 +4°C° 0 mm 3 m/S 753 mmHg 63%

18 April, Sonntag

Zeit Temperatur Niederschläge Wind Luftdruck Luftfeuchtigkeit
00:00 +4°C° 0 mm 3 m/S 753 mmHg 65%
01:00 +3°C° 0 mm 3 m/S 753 mmHg 68%
02:00 +3°C° 0 mm 3 m/S 753 mmHg 71%
03:00 +2°C° 0 mm 3 m/S 753 mmHg 74%
04:00 +2°C° 0 mm 3 m/S 753 mmHg 74%
05:00 +2°C° 0 mm 3 m/S 753 mmHg 75%
06:00 +3°C° 0 mm 2 m/S 754 mmHg 76%
07:00 +4°C° 0 mm 3 m/S 754 mmHg 67%
08:00 +6°C° 0 mm 4 m/S 754 mmHg 59%
09:00 +8°C° 0 mm 4 m/S 754 mmHg 50%
10:00 +10°C° 0 mm 4 m/S 754 mmHg 46%
11:00 +10°C° 0 mm 5 m/S 754 mmHg 43%
12:00 +12°C° 0 mm 5 m/S 754 mmHg 39%
13:00 +12°C° 0 mm 5 m/S 754 mmHg 39%
14:00 +12°C° 0 mm 5 m/S 754 mmHg 39%
15:00 +13°C° 0 mm 6 m/S 754 mmHg 39%
16:00 +11°C° 0 mm 6 m/S 754 mmHg 44%
17:00 +10°C° 0 mm 6 m/S 754 mmHg 50%
18:00 +9°C° 0 mm 6 m/S 755 mmHg 55%
19:00 +7°C° 0 mm 6 m/S 755 mmHg 59%
20:00 +6°C° 0 mm 5 m/S 756 mmHg 62%
21:00 +4°C° 0 mm 4 m/S 757 mmHg 66%
22:00 +3°C° 0 mm 4 m/S 757 mmHg 62%
23:00 +3°C° 0 mm 4 m/S 757 mmHg 59%

19 April, Montag

Zeit Temperatur Niederschläge Wind Luftdruck Luftfeuchtigkeit
00:00 +2°C° 0 mm 3 m/S 758 mmHg 55%
01:00 +1°C° 0 mm 3 m/S 758 mmHg 57%
02:00 0°C° 0 mm 3 m/S 759 mmHg 60%
03:00 0°C° 0 mm 3 m/S 759 mmHg 62%
04:00 0°C° 0 mm 3 m/S 760 mmHg 61%
05:00 0°C° 0 mm 3 m/S 760 mmHg 60%
06:00 0°C° 0 mm 3 m/S 761 mmHg 60%
07:00 0°C° 0 mm 4 m/S 761 mmHg 52%
08:00 +1°C° 0 mm 4 m/S 761 mmHg 45%
09:00 +2°C° 0 mm 5 m/S 761 mmHg 37%
10:00 +3°C° 0 mm 5 m/S 761 mmHg 36%
11:00 +5°C° 0 mm 5 m/S 761 mmHg 34%
12:00 +5°C° 0 mm 5 m/S 761 mmHg 32%
13:00 +6°C° 0 mm 4 m/S 761 mmHg 32%
14:00 +6°C° 0 mm 4 m/S 761 mmHg 31%
15:00 +6°C° 0 mm 4 m/S 761 mmHg 30%
16:00 +6°C° 0 mm 4 m/S 761 mmHg 33%
17:00 +5°C° 0 mm 3 m/S 761 mmHg 35%
18:00 +5°C° 0 mm 3 m/S 761 mmHg 37%
19:00 +3°C° 0 mm 3 m/S 761 mmHg 42%
20:00 +2°C° 0 mm 3 m/S 762 mmHg 47%
21:00 +2°C° 0 mm 2 m/S 762 mmHg 51%
22:00 +1°C° 0 mm 2 m/S 762 mmHg 53%
23:00 +1°C° 0 mm 2 m/S 762 mmHg 55%

20 April, Dienstag

Zeit Temperatur Niederschläge Wind Luftdruck Luftfeuchtigkeit
00:00 -1°C° 0 mm 2 m/S 762 mmHg 56%
01:00 -1°C° 0 mm 2 m/S 762 mmHg 57%
02:00 -1°C° 0 mm 2 m/S 762 mmHg 58%
03:00 -1°C° 0 mm 2 m/S 762 mmHg 59%
04:00 -1°C° 0 mm 2 m/S 762 mmHg 57%
05:00 -1°C° 0 mm 2 m/S 762 mmHg 54%
06:00 +1°C° 0 mm 2 m/S 763 mmHg 52%
07:00 +1°C° 0 mm 3 m/S 762 mmHg 45%
08:00 +3°C° 0 mm 4 m/S 762 mmHg 38%
09:00 +5°C° 0 mm 5 m/S 762 mmHg 31%
10:00 +6°C° 0 mm 5 m/S 762 mmHg 29%
11:00 +6°C° 0 mm 5 m/S 762 mmHg 28%
12:00 +7°C° 0 mm 5 m/S 761 mmHg 27%
13:00 +8°C° 0 mm 5 m/S 761 mmHg 26%
14:00 +8°C° 0 mm 6 m/S 760 mmHg 26%
15:00 +9°C° 0 mm 6 m/S 760 mmHg 26%
16:00 +8°C° 0 mm 5 m/S 760 mmHg 29%
17:00 +8°C° 0 mm 5 m/S 760 mmHg 32%
18:00 +7°C° 0 mm 4 m/S 760 mmHg 35%
19:00 +6°C° 0 mm 4 m/S 759 mmHg 39%
20:00 +5°C° 0 mm 4 m/S 759 mmHg 43%
21:00 +4°C° 0 mm 4 m/S 759 mmHg 46%
22:00 +3°C° 0 mm 4 m/S 759 mmHg 48%
23:00 +3°C° 0 mm 4 m/S 759 mmHg 50%
Mehr zeigen

Wir brauchen deine Erlaubnis

Meteoprog und unser Service Anbieter werden persönliche Daten aufbewahren, so wie Cookies, Geräte Bezeichnung oder ähnliche Technologien von deinem Gerät und Prozess, so wie Persönliche Daten Inhalte und Werbungen, genauso wie social Media und den Verkehr zu analysieren.

  • Aufbewahrung und/oder Zugang zu deiner Geräte Informationen.

    Cookies, Geräte Bezeichnung oder andere Informationen, können aufbewahrt oder Zugang zu deinem Gerät erhalten, für den Grund, der oben angegeben wird.

  • Personalisierte Werbung und Inhalte, Messungen, Einblick in das Publikum und Produkt Entwicklung.

    Werbungen und Inhalte können personalisiert werden, basierend auf ein Profil. Mehr Daten können besser personalisierte Werbungen und Inhalte hinzufügen. Werbung und Inhalte können gezeigt und gemessen werden. Einblicke über das Publikum, welche die Werbung gesehen haben und den Inhalt, können abgeleitet werden. So wie Daten können genutzt werden, um es zu verbessern oder die Benutzer Erfahrung zu verbessern das System und die Software.

Wenn du “Ich stimme zu” klickst, erlaubst du uns, die Cookies zu benutzen die Geräte Bezeichnung, den Web oder ähnliche Technologien zu benutzen. Deine Settings, können in deinem Gerät bei deinem Browser geändert werden.

Für den bestimmten Zweck, berechtigten Interessen beruhen darauf, mehr als auf den Inhalt. Du kannst mehr darüber in unseren Privaten und Cookie Politik lesen.